Temperature
22 22 22 21 21 20 20 20 19 19 19 18 18 18 18 17 17 17 17 17 17 17 17 17 17 17 17 17 17 17 17 17 17 17 17 17 17 17 17 16 16 16 16
22 22 21 21 21 21 20 20 19 19 19 18 18 18 18 18 17 17 17 17 17 17 17 17 17 17 17 17 17 17 17 17 17 17 17 17 17 17 17 17 17 16 16
22 22 22 21 21 20 20 20 19 19 19 18 18 17 17 17 17 17 17 17 17 17 17 17 17 17 17 17 17 17 17 17 17 17 17 17 17 17 17 17 17 17 17
22 22 22 21 21 21 20 20 19 19 18 18 18 17 17 17 17 17 17 17 17 17 17 17 17 17 17 17 17 17 17 17 17 17 17 17 17 17 17 17 17 17 17
22 22 22 22 21 21 20 20 19 19 18 18 18 17 17 17 17 17 17 17 17 17 17 17 17 17 17 17 17 17 17 17 17 17 17 17 17 17 17 17 17 17 17
22 22 22 21 21 20 20 19 19 19 18 18 18 17 17 17 17 17 17 17 17 17 17 17 17 17 17 17 17 17 17 17 17 17 17 17 17 17 17 17 17 17 17
22 22 21 21 21 20 20 19 19 19 18 18 18 17 17 17 17 17 17 17 17 17 17 17 17 17 17 17 17 17 17 17 17 17 17 17 17 17 17 17 17 17 17
22 22 22 21 21 20 20 19 19 19 18 18 18 17 17 17 17 17 17 17 17 17 17 17 17 17 17 17 17 17 16 16 16 16 17 17 17 17 17 17 17 17 17
22 22 22 21 21 20 20 19 19 19 18 18 18 17 17 17 17 17 17 17 17 17 17 17 17 17 16 16 16 16 16 16 16 16 16 16 16 16 16 16 16 16 16
22 22 22 21 21 20 20 19 19 18 18 18 17 17 17 17 17 17 17 17 17 17 16 16 16 16 16 16 16 16 16 16 16 16 16 16 16 16 16 16 16 16 16
22 22 21 21 21 20 20 19 19 18 18 18 17 17 17 17 17 17 17 17 17 17 16 16 16 16 16 16 16 16 16 16 16 16 16 16 16 16 16 16 16 16 16
22 22 21 21 20 20 19 19 18 18 18 18 17 17 17 17 17 17 17 17 16 16 16 16 16 16 16 16 16 16 16 16 16 16 16 16 16 16 16 15 15 15 15
21 21 21 21 20 20 19 19 18 18 18 18 17 17 17 17 17 17 17 16 16 16 16 16 16 16 16 16 16 16 16 16 16 15 15 15 15 15 15 15 15 15 15
21 21 20 20 20 20 19 19 18 18 18 18 17 17 17 17 17 17 16 16 16 16 16 16 16 16 16 16 16 16 16 15 15 15 15 15 15 15 15 15 15 15 15
20 20 20 20 20 19 19 19 18 18 18 18 17 17 17 16 16 16 16 16 16 16 16 16 16 16 16 16 16 16 15 15 15 15 15 14 14 14 14 14 14 14 14
21 21 20 20 20 20 19 18 18 18 17 17 17 17 17 16 16 16 16 16 16 16 16 16 15 15 15 15 15 15 15 15 14 14 14 14 14 14 14 14 14 14 14
21 21 21 20 20 20 19 18 18 17 17 17 17 17 16 16 16 16 16 16 15 15 15 15 15 15 15 15 15 15 15 14 14 14 14 14 14 14 14 14 14 13 13
21 21 21 20 20 19 19 18 18 17 17 17 17 16 16 16 16 15 15 15 15 15 15 15 15 15 14 14 14 14 14 14 14 14 13 13 13 13 13 13 13 13 13
21 21 20 20 19 19 18 18 17 17 17 16 16 16 16 15 15 15 15 15 15 15 15 14 14 14 14 14 14 14 14 14 13 13 13 13 13 13 12 12 12 12 12
20 19 19 19 19 18 18 17 17 17 16 16 16 15 15 15 15 15 14 14 14 14 14 14 14 14 13 13 13 13 13 13 13 13 12 12 12 12 12 12 11 11 11
19 19 18 18 18 17 17 17 16 16 16 15 15 15 15 15 14 14 14 14 14 14 13 13 13 13 13 13 13 13 12 12 12 12 11 11 11 11 11 11 10 10 10
18 18 18 17 17 17 16 16 16 16 15 15 15 15 14 14 14 14 14 13 13 13 13 13 12 12 12 12 12 12 12 12 11 11 10 10 10 10 10 10 9 9 9
18 17 17 17 16 16 16 16 15 15 15 14 14 14 14 13 13 13 13 13 13 12 12 12 12 11 11 11 11 11 11 11 10 10 10 9 9 9 9 9 9 8 8
17 17 16 16 16 15 15 15 14 14 14 14 13 13 13 13 13 12 12 12 12 12 12 11 11 11 11 10 10 10 10 10 10 9 9 9 9 8 8 8 8 7 7
16 16 16 16 15 14 14 14 14 13 13 13 13 12 12 12 12 11 11 11 11 11 11 11 11 11 10 10 9 9 9 9 9 9 8 8 8 8 7 7 7 7 6
15 15 14 14 14 14 13 13 13 13 13 12 12 12 11 11 11 11 10 10 10 10 10 10 10 9 9 9 9 9 8 8 8 8 8 7 7 7 6 6 6 6 6
Wind_Speed
6 6 7 8 9 9 10 11 10 9 8 6 6 5 5 5 4 6 9 10 9 10 9 5 5 5 4 4 4 3 3 2 2 2 1 2 1 2 3 4 5 7 9
5 6 7 8 9 10 11 10 10 10 9 7 6 4 4 4 4 4 6 9 9 10 9 7 5 5 4 4 4 3 3 2 2 3 2 1 2 2 3 3 5 6 7
9 8 8 8 8 9 10 10 10 9 9 7 5 3 3 2 2 3 3 6 9 9 8 9 7 6 5 5 5 5 5 3 2 2 3 3 3 2 2 3 4 5 5
8 8 8 8 9 9 8 8 8 8 7 8 7 7 6 5 5 5 4 4 6 8 8 8 8 7 5 6 6 5 4 5 3 2 1 2 3 2 2 2 2 4 5
8 9 9 9 8 8 7 7 7 7 7 8 8 7 5 4 3 3 4 4 4 5 7 8 7 6 5 6 5 5 5 4 4 4 2 2 1 1 2 2 2 2 3
8 7 6 6 6 6 6 6 7 6 7 8 8 7 7 6 5 5 5 4 3 3 5 6 7 6 5 6 6 5 6 5 4 4 3 3 3 3 3 3 3 3 3
8 8 8 7 7 8 7 7 7 7 7 7 7 7 7 7 7 6 6 5 4 4 5 5 5 5 5 6 6 5 5 5 5 5 4 4 3 3 3 3 2 2 2
8 8 8 8 8 8 8 7 7 6 7 7 6 5 6 5 4 5 5 5 5 5 4 5 5 5 5 5 5 4 5 4 5 6 5 4 4 4 4 3 3 1 2
9 9 8 8 8 8 8 7 7 6 6 6 5 4 5 5 5 4 5 4 4 4 4 5 5 4 4 5 5 4 5 5 5 5 5 4 3 4 4 3 3 4 3
8 8 8 8 7 7 6 6 6 5 5 5 4 4 4 4 4 4 5 4 4 4 4 5 5 5 5 5 5 5 4 5 4 4 5 4 3 3 3 3 3 3 4
9 8 7 7 7 6 6 6 5 5 4 4 3 3 2 2 2 3 4 4 4 4 5 5 5 5 5 5 5 5 5 5 5 4 5 5 4 3 3 3 3 3 3
7 7 7 7 7 7 6 6 5 5 4 4 4 3 3 2 2 2 2 3 3 3 4 4 4 5 5 5 6 6 5 5 5 5 5 5 4 4 3 3 4 4 4
7 7 7 7 7 6 6 6 5 5 5 5 4 3 3 2 2 2 2 2 3 3 3 3 4 4 4 5 5 5 5 5 5 5 5 5 4 4 3 3 3 3 3
8 7 7 6 6 6 5 5 5 5 5 5 4 3 2 2 2 1 1 2 2 3 2 3 3 3 3 3 4 4 4 3 2 2 3 3 3 4 4 4 4 3 3
8 8 7 6 6 5 5 5 5 5 5 5 4 3 2 2 2 2 2 2 2 2 2 2 1 1 2 2 3 3 3 3 2 1 1 1 2 2 3 3 3 3 2
9 8 7 7 6 6 6 5 4 4 5 5 3 3 3 3 2 2 2 2 2 2 2 2 1 1 1 2 3 3 2 2 2 1 1 1 1 1 2 3 3 3 3
9 9 8 7 6 5 5 5 4 5 5 4 3 3 3 3 2 2 3 2 2 2 2 2 2 1 1 3 5 6 4 3 3 2 1 1 1 2 3 5 6 6 5
9 9 8 7 5 5 5 5 5 5 5 4 4 3 3 3 2 3 2 2 2 2 2 2 2 3 3 5 6 7 6 4 4 3 3 3 2 2 4 5 5 5 5
6 6 7 6 6 7 6 7 6 5 5 4 3 3 3 3 3 2 2 2 3 3 3 3 3 3 3 5 5 6 5 5 6 6 6 5 4 4 5 6 6 6 6
7 7 7 8 7 6 7 8 7 6 5 3 4 4 4 4 3 3 3 3 4 4 4 4 4 5 4 6 6 6 5 6 5 5 6 8 7 8 7 6 6 6 5
9 9 9 8 6 6 7 7 7 6 5 5 5 5 5 5 4 4 4 4 4 5 5 5 5 5 5 6 8 7 5 5 6 5 5 6 11 12 11 9 7 7 7
9 9 9 8 6 6 6 7 6 5 6 6 6 6 6 5 5 5 5 5 5 5 5 5 5 5 5 7 8 10 9 8 7 6 5 7 13 14 13 11 12 12 10
9 8 9 8 6 6 6 6 4 5 7 7 7 6 7 6 6 6 5 5 4 4 4 4 4 4 5 6 10 11 11 11 8 8 11 12 14 13 12 14 14 10 8
8 8 9 9 7 6 6 5 5 6 7 7 6 6 7 7 7 6 5 5 4 4 5 5 5 4 5 5 5 6 8 11 10 9 12 14 15 12 11 10 9 8 7
6 7 8 8 8 7 7 6 5 6 8 7 7 6 6 7 7 8 7 6 5 4 5 4 4 5 5 4 6 7 6 6 7 8 7 7 7 8 7 7 7 7 6
7 8 8 8 8 7 7 6 5 6 8 7 6 6 6 6 6 8 10 16 13 15 14 10 8 7 8 10 12 13 13 13 11 9 8 7 7 7 6 6 6 6 5
Wind_Direction
186 165 169 171 166 171 176 183 184 179 172 169 173 179 191 191 195 199 199 196 195 191 183 185 180 179 180 180 164 142 135 123 129 102 45 348 295 244 237 233 233 233 232
172 167 166 169 173 179 179 180 184 180 181 182 177 174 168 185 195 197 197 197 195 191 190 184 183 182 174 170 169 153 142 145 152 140 125 349 328 292 243 229 231 236 233
187 181 174 176 172 178 183 185 185 183 182 174 154 138 125 128 162 192 203 204 198 197 195 190 184 184 178 184 186 174 164 168 176 171 154 163 229 280 293 249 236 234 230
183 178 177 178 180 183 180 178 178 181 178 170 171 170 180 189 198 193 195 197 198 200 200 194 189 188 185 187 192 185 177 162 178 192 199 181 165 175 285 303 266 247 238
179 181 184 181 179 174 174 172 169 177 177 177 182 182 189 193 184 172 179 194 200 205 201 195 191 192 193 192 190 180 183 179 176 179 173 165 144 158 181 264 296 283 250
175 174 167 155 160 160 165 168 172 178 178 182 187 191 190 184 179 182 187 196 202 207 203 196 193 194 195 194 194 190 186 189 181 181 180 176 176 191 188 219 251 268 278
164 160 158 160 163 167 170 170 174 181 182 186 194 199 195 189 195 195 194 196 201 206 208 201 194 194 199 196 187 186 195 193 190 195 202 202 203 179 178 191 225 254 283
162 163 168 171 175 174 172 172 178 184 184 189 196 198 195 195 202 199 194 199 206 208 200 196 193 192 194 196 186 193 203 200 205 209 203 207 213 198 190 184 178 223 284
165 166 166 173 176 173 175 178 177 181 185 187 186 190 192 192 196 199 198 200 202 202 190 193 193 195 197 195 188 200 204 196 205 211 209 213 221 210 210 198 186 186 227
162 160 163 170 171 164 160 162 167 174 177 176 183 192 194 196 190 184 192 193 196 192 180 189 190 195 199 199 196 204 202 198 208 208 206 213 221 214 208 208 208 203 203
166 162 162 161 151 140 143 151 156 153 156 165 166 168 176 179 173 186 193 191 192 187 185 187 190 197 202 201 199 205 198 201 213 214 209 217 207 206 210 207 206 208 200
153 151 152 146 144 147 149 155 159 152 154 153 145 152 150 148 162 188 190 179 183 185 186 184 192 200 203 199 198 205 203 205 215 223 217 226 210 205 211 207 212 211 206
145 140 142 150 154 156 157 158 160 156 150 144 140 137 138 148 172 192 182 171 174 176 178 181 192 198 199 198 200 199 201 206 216 220 217 222 202 207 213 210 216 217 208
147 145 148 152 153 153 157 159 159 155 149 142 142 146 158 162 167 162 154 158 160 160 167 177 185 186 187 191 189 186 192 191 199 216 217 207 197 211 213 215 217 211 201
153 156 154 151 149 150 152 156 156 150 148 143 142 152 145 129 115 109 122 127 138 157 150 147 147 153 177 192 180 174 176 174 169 165 172 162 154 178 191 197 196 182 174
161 155 150 149 154 160 159 154 152 152 144 142 145 137 123 118 114 110 113 111 114 118 115 124 130 120 189 147 149 154 149 149 141 142 135 122 109 112 116 127 129 139 170
159 157 158 158 156 154 154 153 151 139 133 132 130 128 128 127 129 121 109 113 118 112 106 105 107 102 87 99 105 108 115 111 112 114 105 93 59 86 101 86 78 70 69
163 160 154 146 135 125 128 128 123 125 126 123 121 120 122 122 110 104 107 112 104 102 99 95 99 92 77 92 103 105 102 90 80 76 74 79 57 68 103 101 86 72 56
146 140 138 134 126 123 129 122 117 115 113 113 116 119 122 118 111 111 111 106 101 92 84 78 86 91 71 73 99 108 101 89 75 67 64 69 68 69 103 108 101 85 67
111 113 111 106 108 114 121 118 115 113 110 103 104 107 108 110 110 108 102 95 97 97 89 76 69 76 69 65 85 103 107 99 85 69 61 63 71 67 81 99 103 94 77
106 109 108 105 104 108 114 114 112 107 100 98 97 94 92 95 92 88 87 93 94 91 88 82 70 65 64 65 72 89 105 110 98 81 65 59 70 72 72 78 85 93 91
105 107 106 98 92 98 110 112 110 105 100 99 94 89 84 85 85 87 82 86 94 90 86 85 72 56 56 66 76 83 92 102 100 93 82 76 76 74 73 76 81 84 84
109 107 109 101 87 85 102 111 103 102 102 97 92 89 84 79 80 85 84 83 85 92 88 88 81 66 63 68 75 83 89 92 93 90 89 83 78 75 72 70 73 75 79
115 115 114 110 96 81 79 93 101 102 103 101 97 95 93 85 75 70 70 81 84 92 95 98 94 82 71 71 78 83 87 87 88 88 84 79 74 73 72 68 65 66 73
110 113 114 111 103 93 87 87 96 105 105 101 98 95 93 95 83 71 58 66 58 81 101 99 102 100 89 70 86 98 93 97 101 99 84 77 74 72 68 65 61 62 65
110 109 105 106 103 99 92 85 91 105 111 108 103 101 101 100 100 96 78 58 66 66 67 74 89 79 86 90 87 88 91 94 100 94 89 83 80 78 75 73 66 58 59
Height
1518 1521 1524 1526 1529 1531 1534 1536 1539 1542 1545 1548 1550 1552 1555 1558 1560 1563 1565 1568 1570 1572 1573 1575 1577 1578 1580 1581 1582 1583 1584 1586 1587 1588 1588 1589 1589 1589 1590 1590 1591 1592 1592
1517 1519 1522 1524 1526 1529 1531 1534 1537 1540 1543 1545 1548 1551 1554 1556 1558 1561 1563 1565 1568 1570 1572 1573 1575 1577 1578 1580 1581 1582 1583 1585 1586 1587 1587 1588 1589 1588 1588 1589 1589 1590 1591
1514 1517 1519 1522 1525 1527 1530 1532 1534 1537 1541 1544 1546 1549 1552 1554 1556 1558 1561 1563 1565 1568 1569 1571 1573 1575 1576 1578 1579 1581 1582 1583 1585 1586 1587 1587 1586 1586 1587 1587 1588 1588 1589
1513 1515 1518 1521 1523 1526 1528 1531 1533 1536 1538 1541 1543 1546 1548 1550 1553 1555 1558 1561 1563 1565 1567 1569 1571 1573 1574 1576 1577 1579 1580 1582 1583 1584 1585 1586 1585 1586 1585 1586 1586 1586 1587
1511 1514 1516 1519 1522 1525 1527 1530 1532 1534 1537 1539 1542 1544 1546 1549 1551 1553 1556 1558 1560 1562 1564 1566 1568 1570 1572 1573 1575 1577 1578 1579 1581 1582 1583 1583 1584 1584 1584 1584 1584 1585 1585
1509 1512 1516 1518 1521 1524 1527 1529 1531 1533 1535 1538 1540 1542 1544 1546 1548 1551 1553 1555 1557 1559 1561 1563 1565 1567 1569 1570 1572 1574 1575 1577 1578 1579 1580 1581 1581 1581 1582 1582 1582 1582 1583
1507 1511 1514 1517 1520 1523 1525 1527 1529 1532 1534 1536 1538 1540 1542 1544 1546 1548 1550 1552 1554 1556 1558 1560 1562 1564 1566 1568 1570 1571 1573 1574 1575 1576 1577 1578 1579 1579 1580 1580 1580 1580 1580
1506 1510 1513 1516 1519 1522 1524 1526 1528 1531 1533 1535 1537 1539 1541 1542 1544 1546 1547 1549 1551 1553 1555 1556 1558 1561 1563 1565 1566 1568 1569 1571 1572 1573 1574 1575 1576 1576 1577 1578 1578 1578 1578
1505 1509 1512 1515 1518 1521 1523 1526 1528 1530 1532 1533 1535 1537 1539 1540 1541 1543 1545 1546 1548 1550 1552 1553 1556 1558 1560 1561 1563 1565 1566 1567 1568 1569 1570 1571 1572 1573 1574 1575 1575 1576 1575
1505 1508 1512 1515 1518 1520 1523 1525 1527 1529 1531 1533 1534 1536 1537 1538 1539 1541 1542 1544 1546 1548 1549 1551 1553 1555 1557 1559 1560 1561 1563 1564 1565 1566 1567 1567 1568 1569 1570 1571 1572 1572 1573
1504 1508 1512 1515 1518 1520 1523 1525 1527 1529 1530 1532 1533 1534 1535 1537 1538 1539 1540 1542 1544 1545 1547 1549 1550 1552 1554 1556 1557 1558 1559 1560 1561 1562 1563 1563 1564 1565 1566 1567 1568 1568 1568
1504 1507 1511 1514 1517 1519 1522 1524 1526 1528 1530 1531 1532 1533 1534 1535 1536 1537 1539 1540 1542 1543 1545 1546 1548 1549 1551 1552 1553 1554 1556 1557 1557 1558 1559 1559 1560 1561 1562 1563 1563 1564 1564
1503 1507 1510 1513 1516 1519 1521 1523 1525 1527 1529 1530 1531 1532 1533 1534 1535 1536 1537 1539 1540 1541 1543 1544 1545 1546 1548 1549 1550 1551 1552 1553 1553 1554 1555 1555 1556 1556 1557 1558 1559 1559 1560
1503 1507 1510 1513 1516 1518 1521 1523 1524 1526 1528 1529 1530 1531 1532 1533 1534 1535 1536 1537 1538 1539 1540 1542 1543 1544 1545 1546 1547 1547 1548 1549 1550 1550 1550 1551 1551 1552 1553 1554 1555 1555 1556
1502 1506 1509 1512 1515 1518 1520 1522 1524 1525 1527 1528 1529 1530 1532 1533 1533 1534 1535 1536 1537 1537 1538 1539 1540 1541 1542 1543 1543 1544 1544 1545 1546 1547 1547 1547 1548 1549 1550 1551 1551 1552 1552
1500 1504 1508 1511 1513 1516 1519 1521 1523 1525 1526 1527 1528 1530 1531 1532 1532 1533 1533 1534 1535 1536 1537 1537 1538 1539 1539 1540 1540 1541 1541 1542 1542 1543 1544 1545 1545 1546 1547 1547 1548 1548 1548
1498 1502 1506 1509 1512 1516 1518 1520 1523 1524 1525 1526 1528 1529 1530 1531 1532 1532 1532 1533 1534 1535 1535 1536 1536 1537 1537 1538 1538 1539 1539 1540 1540 1541 1542 1542 1543 1543 1543 1544 1544 1544 1545
1497 1501 1505 1509 1512 1515 1518 1520 1522 1524 1525 1526 1527 1528 1529 1530 1531 1531 1531 1532 1532 1533 1534 1534 1535 1535 1535 1536 1537 1537 1538 1538 1538 1539 1540 1540 1540 1541 1541 1541 1541 1542 1542
1497 1501 1505 1509 1511 1514 1517 1519 1520 1523 1524 1525 1527 1528 1528 1529 1530 1530 1530 1531 1531 1532 1532 1532 1533 1533 1534 1535 1535 1536 1536 1537 1537 1538 1538 1538 1538 1539 1539 1539 1539 1539 1539
1498 1502 1506 1509 1511 1514 1516 1517 1519 1521 1523 1525 1526 1527 1527 1528 1529 1529 1529 1530 1530 1530 1531 1531 1532 1532 1533 1534 1534 1535 1535 1535 1536 1536 1536 1537 1537 1537 1538 1538 1537 1537 1538
1499 1502 1505 1508 1511 1514 1516 1517 1518 1519 1521 1524 1525 1526 1527 1528 1528 1528 1529 1529 1529 1530 1530 1530 1531 1531 1532 1533 1533 1534 1534 1535 1535 1535 1536 1536 1537 1537 1537 1537 1537 1537 1538
1499 1502 1505 1508 1511 1513 1516 1517 1518 1519 1520 1522 1524 1525 1526 1527 1528 1528 1528 1528 1529 1529 1530 1530 1530 1531 1532 1532 1533 1534 1534 1534 1534 1534 1535 1536 1536 1536 1537 1537 1537 1538 1538
1500 1503 1505 1508 1511 1513 1515 1517 1518 1519 1520 1522 1523 1524 1526 1527 1527 1527 1528 1528 1528 1529 1529 1530 1530 1531 1532 1532 1533 1533 1534 1534 1535 1535 1536 1537 1537 1537 1537 1538 1538 1538 1539
1501 1503 1506 1508 1511 1513 1515 1517 1518 1519 1520 1521 1523 1524 1525 1526 1527 1527 1528 1528 1529 1529 1530 1531 1531 1532 1532 1533 1533 1534 1534 1535 1536 1536 1537 1538 1538 1538 1539 1539 1539 1539 1540
1502 1504 1506 1508 1510 1513 1515 1517 1518 1520 1520 1521 1523 1524 1525 1526 1527 1528 1529 1529 1530 1531 1532 1532 1533 1533 1533 1535 1535 1536 1536 1537 1538 1538 1538 1539 1539 1540 1540 1541 1541 1542 1542
1503 1505 1507 1509 1511 1513 1515 1517 1518 1519 1520 1521 1523 1524 1526 1527 1528 1529 1530 1531 1532 1533 1533 1534 1535 1535 1536 1537 1537 1538 1539 1539 1540 1541 1540 1541 1541 1542 1543 1543 1543 1544 1544